EW5412 Weather Reports


Display with metric or nautical units.
time (UTC)temp
F
wind
direction
speed
MPH
gust
MPH
rain 1hr
in
rain 24hr
in
rain mn
in
humidity
%
barometer
mb
20260505023044 69 288 6.0 11.0 0.00 0.00 0.00 57 1000.8
20260505021542 68 276 4.0 9.0 0.00 0.00 0.00 58 1000.6
20260505020039 69 263 5.0 9.0 0.00 0.00 0.00 58 1000.5
20260505014557 69 266 5.0 10.0 0.00 0.00 0.00 59 1000.4
20260505013040 68 276 4.0 7.0 0.00 0.00 0.00 61 1000.4
20260505011537 68 262 2.0 6.0 0.00 0.00 0.00 61 1000.1
20260505010036 69 253 2.0 8.0 0.00 0.00 0.00 59 999.9
20260505004540 70 272 5.0 12.0 0.00 0.00 0.00 58 999.9
20260505003035 70 295 7.0 14.0 0.00 0.00 0.00 59 1000.1
20260505001536 70 300 7.0 17.0 0.00 0.00 0.00 59 1000.1
20260505000040 71 285 6.0 17.0 0.00 0.00 0.00 59 1000.1
20260504234538 71 301 13.0 20.0 0.00 0.00 0.00 58 1000.0
20260504233033 72 274 13.0 24.0 0.00 0.00 0.00 57 999.8
20260504231536 72 288 11.0 19.0 0.00 0.00 0.00 57 1000.0
20260504230030 71 301 13.0 24.0 0.00 0.00 0.00 56 1000.4
20260504224530 72 288 13.0 28.0 0.00 0.00 0.00 53 1000.6
20260504223029 73 307 16.0 33.0 0.00 0.00 0.00 51 1000.9
20260504221534 73 294 16.0 32.0 0.00 0.00 0.00 48 1001.0
20260504220028 74 305 21.0 32.0 0.00 0.00 0.00 47 1000.9
20260504214527 74 340 14.0 29.0 0.00 0.00 0.00 48 1001.0
20260504213045 76 292 14.0 33.0 0.00 0.00 0.00 46 1000.8
20260504211526 75 300 18.0 29.0 0.00 0.00 0.00 46 1000.9
20260504210027 75 319 16.0 34.0 0.00 0.00 0.00 47 1000.6
20260504204524 75 285 15.0 35.0 0.00 0.00 0.00 45 1000.6
20260504203023 76 289 14.0 30.0 0.00 0.00 0.00 46 1000.7
20260504201526 76 352 15.0 29.0 0.00 0.00 0.00 45 1000.9
20260504200020 75 299 11.0 27.0 0.00 0.00 0.00 49 1001.0
20260504194519 76 290 14.0 29.0 0.00 0.00 0.00 49 1001.0
20260504193017 75 280 16.0 26.0 0.00 0.00 0.00 48 1001.1
20260504191515 75 288 17.0 29.0 0.00 0.00 0.00 48 1001.2
20260504190012 75 311 12.0 25.0 0.00 0.00 0.00 50 1001.5
20260504184514 74 332 14.0 26.0 0.00 0.00 0.00 50 1001.7
20260504183007 73 270 15.0 28.0 0.00 0.00 0.00 52 1001.8
20260504181506 73 302 15.0 25.0 0.00 0.00 0.00 52 1002.0
20260504180006 73 271 10.0 26.0 0.00 0.00 0.00 54 1002.1
20260504174617 73 296 10.0 20.0 0.00 0.00 0.00 55 1002.3
20260504173059 71 304 11.0 21.0 0.00 0.00 0.00 57 1002.5
20260504171555 70 308 12.0 21.0 0.00 0.00 0.00 57 1002.8
20260504081522 51 270 6.0 10.0 0.00 0.00 0.00 75 1006.1
20260504060104 51 288 6.0 11.0 0.00 0.00 0.00 77 1007.8
20260504044600 50 277 2.0 7.0 0.00 0.00 0.00 78 1008.6
20260504043049 50 280 3.0 6.0 0.00 0.00 0.00 79 1008.6
20260504041547 50 233 3.0 8.0 0.00 0.00 0.00 79 1008.4
20260504040044 50 256 4.0 7.0 0.00 0.00 0.00 79 1008.6
20260504034551 50 252 3.0 8.0 0.00 0.00 0.00 80 1008.9
20260504033052 50 257 3.0 7.0 0.00 0.00 0.00 81 1008.9
20260504031541 50 249 5.0 8.0 0.00 0.00 0.00 81 1009.0
20260504030039 49 257 5.0 9.0 0.00 0.00 0.00 82 1009.1
20260504024544 49 243 3.0 6.0 0.00 0.00 0.00 84 1009.2